Hourly Weather Golaicha

Today, 7 May, Friday

Time Temperature Precipitation Wind Pressure Humidity
00:00 +4°C° 0 mm 3 mps 737 mmHg 86%
01:00 +4°C° 0 mm 3 mps 737 mmHg 87%
02:00 +4°C° 0 mm 3 mps 737 mmHg 88%
03:00 +5°C° 0 mm 4 mps 736 mmHg 86%
04:00 +5°C° 0 mm 4 mps 736 mmHg 85%
05:00 +6°C° 0 mm 4 mps 736 mmHg 83%
06:00 +6°C° 1 mm 4 mps 735 mmHg 86%
07:00 +6°C° 1 mm 4 mps 735 mmHg 88%
08:00 +6°C° 1 mm 5 mps 735 mmHg 91%
09:00 +7°C° 0.1 mm 5 mps 735 mmHg 88%
10:00 +8°C° 0.1 mm 5 mps 734 mmHg 85%
11:00 +9°C° 0.1 mm 5 mps 734 mmHg 83%
12:00 +10°C° 0.1 mm 5 mps 734 mmHg 79%
13:00 +10°C° 0.1 mm 5 mps 734 mmHg 75%
14:00 +12°C° 0.1 mm 5 mps 734 mmHg 71%
15:00 +12°C° 0.2 mm 5 mps 734 mmHg 72%
16:00 +12°C° 0.2 mm 5 mps 734 mmHg 74%
17:00 +12°C° 0.2 mm 5 mps 733 mmHg 75%
18:00 +10°C° 0.2 mm 5 mps 734 mmHg 79%
19:00 +9°C° 0.2 mm 5 mps 734 mmHg 83%
20:00 +8°C° 0.2 mm 5 mps 735 mmHg 87%
21:00 +7°C° 0 mm 6 mps 735 mmHg 87%
22:00 +5°C° 0 mm 6 mps 736 mmHg 88%
23:00 +4°C° 0 mm 6 mps 737 mmHg 88%

Tomorrow, 8 May, Saturday

Time Temperature Precipitation Wind Pressure Humidity
00:00 +3°C° 0 mm 7 mps 737 mmHg 86%
01:00 +3°C° 0 mm 7 mps 738 mmHg 84%
02:00 +3°C° 0 mm 7 mps 738 mmHg 83%
03:00 +2°C° 0 mm 7 mps 739 mmHg 85%
04:00 +2°C° 0 mm 7 mps 739 mmHg 88%
05:00 +2°C° 0 mm 7 mps 740 mmHg 90%
06:00 +2°C° 0.1 mm 7 mps 740 mmHg 87%
07:00 +2°C° 0.1 mm 7 mps 741 mmHg 85%
08:00 +3°C° 0.1 mm 7 mps 742 mmHg 82%
09:00 +3°C° 0 mm 7 mps 742 mmHg 80%
10:00 +3°C° 0 mm 7 mps 743 mmHg 78%
11:00 +3°C° 0 mm 6 mps 743 mmHg 76%
12:00 +4°C° 0 mm 6 mps 744 mmHg 71%
13:00 +5°C° 0 mm 6 mps 744 mmHg 65%
14:00 +7°C° 0 mm 5 mps 744 mmHg 60%
15:00 +8°C° 0.2 mm 5 mps 744 mmHg 60%
16:00 +8°C° 0.2 mm 5 mps 744 mmHg 60%
17:00 +9°C° 0.2 mm 5 mps 744 mmHg 61%
18:00 +7°C° 0.2 mm 4 mps 744 mmHg 68%
19:00 +7°C° 0.2 mm 3 mps 745 mmHg 74%
20:00 +5°C° 0.2 mm 2 mps 745 mmHg 81%
21:00 +5°C° 0 mm 2 mps 745 mmHg 81%
22:00 +4°C° 0 mm 2 mps 745 mmHg 82%
23:00 +4°C° 0 mm 2 mps 746 mmHg 82%

Day after tomorrow, 9 May, Sunday

Time Temperature Precipitation Wind Pressure Humidity
00:00 +3°C° 0 mm 2 mps 746 mmHg 83%
01:00 +3°C° 0 mm 2 mps 746 mmHg 85%
02:00 +3°C° 0 mm 2 mps 746 mmHg 86%
03:00 +3°C° 0 mm 2 mps 747 mmHg 86%
04:00 +3°C° 0 mm 2 mps 747 mmHg 86%
05:00 +2°C° 0 mm 2 mps 747 mmHg 86%
06:00 +5°C° 0 mm 2 mps 747 mmHg 80%
07:00 +7°C° 0 mm 2 mps 747 mmHg 74%
08:00 +9°C° 0 mm 2 mps 748 mmHg 68%
09:00 +10°C° 0 mm 3 mps 748 mmHg 63%
10:00 +12°C° 0 mm 3 mps 747 mmHg 57%
11:00 +13°C° 0 mm 4 mps 747 mmHg 52%
12:00 +14°C° 0 mm 4 mps 747 mmHg 50%
13:00 +15°C° 0 mm 4 mps 747 mmHg 48%
14:00 +17°C° 0 mm 4 mps 747 mmHg 46%
15:00 +17°C° 0 mm 4 mps 747 mmHg 48%
16:00 +17°C° 0 mm 4 mps 746 mmHg 50%
17:00 +17°C° 0 mm 3 mps 746 mmHg 52%
18:00 +14°C° 0 mm 3 mps 746 mmHg 60%
19:00 +12°C° 0 mm 3 mps 746 mmHg 67%
20:00 +11°C° 0 mm 3 mps 746 mmHg 75%
21:00 +10°C° 0 mm 3 mps 746 mmHg 77%
22:00 +9°C° 0 mm 3 mps 746 mmHg 79%
23:00 +7°C° 0 mm 4 mps 747 mmHg 81%

10 May, Monday

Time Temperature Precipitation Wind Pressure Humidity
00:00 +7°C° 0 mm 4 mps 747 mmHg 80%
01:00 +6°C° 0 mm 4 mps 746 mmHg 79%
02:00 +6°C° 0 mm 4 mps 746 mmHg 78%
03:00 +5°C° 0 mm 4 mps 746 mmHg 79%
04:00 +5°C° 0 mm 4 mps 746 mmHg 79%
05:00 +4°C° 0 mm 4 mps 746 mmHg 80%
06:00 +6°C° 0 mm 4 mps 746 mmHg 75%
07:00 +8°C° 0 mm 5 mps 746 mmHg 71%
08:00 +10°C° 0 mm 5 mps 746 mmHg 67%
09:00 +13°C° 0 mm 6 mps 746 mmHg 63%
10:00 +15°C° 0 mm 6 mps 746 mmHg 59%
11:00 +17°C° 0 mm 7 mps 746 mmHg 56%
12:00 +18°C° 0 mm 7 mps 746 mmHg 54%
13:00 +18°C° 0 mm 7 mps 746 mmHg 52%
14:00 +20°C° 0 mm 7 mps 745 mmHg 50%
15:00 +20°C° 0 mm 7 mps 745 mmHg 54%
16:00 +20°C° 0 mm 7 mps 745 mmHg 58%
17:00 +18°C° 0 mm 7 mps 745 mmHg 62%
18:00 +17°C° 0 mm 6 mps 745 mmHg 66%
19:00 +15°C° 0 mm 6 mps 745 mmHg 70%
20:00 +14°C° 0 mm 5 mps 745 mmHg 74%
21:00 +13°C° 0 mm 5 mps 745 mmHg 74%
22:00 +12°C° 0 mm 5 mps 745 mmHg 75%
23:00 +10°C° 0 mm 5 mps 745 mmHg 75%

11 May, Tuesday

Time Temperature Precipitation Wind Pressure Humidity
00:00 +10°C° 0 mm 5 mps 745 mmHg 74%
01:00 +9°C° 0 mm 5 mps 745 mmHg 73%
02:00 +9°C° 0 mm 6 mps 745 mmHg 71%
03:00 +8°C° 0 mm 5 mps 745 mmHg 71%
04:00 +8°C° 0 mm 5 mps 745 mmHg 71%
05:00 +8°C° 0 mm 5 mps 745 mmHg 71%
06:00 +9°C° 0 mm 6 mps 745 mmHg 70%
07:00 +10°C° 0 mm 6 mps 745 mmHg 69%
08:00 +11°C° 0 mm 7 mps 745 mmHg 68%
09:00 +14°C° 0 mm 7 mps 744 mmHg 63%
10:00 +16°C° 0 mm 8 mps 744 mmHg 59%
11:00 +17°C° 0 mm 8 mps 744 mmHg 55%
12:00 +18°C° 0 mm 8 mps 744 mmHg 54%
13:00 +20°C° 0 mm 8 mps 744 mmHg 52%
14:00 +20°C° 0 mm 8 mps 743 mmHg 51%
15:00 +20°C° 0 mm 7 mps 743 mmHg 54%
16:00 +20°C° 0 mm 7 mps 743 mmHg 57%
17:00 +20°C° 0 mm 7 mps 743 mmHg 60%
18:00 +17°C° 0 mm 6 mps 742 mmHg 63%
19:00 +15°C° 0 mm 5 mps 742 mmHg 67%
20:00 +14°C° 0 mm 5 mps 742 mmHg 70%
21:00 +13°C° 0 mm 5 mps 742 mmHg 72%
22:00 +13°C° 0 mm 5 mps 742 mmHg 73%
23:00 +11°C° 0 mm 6 mps 741 mmHg 75%

12 May, Wednesday

Time Temperature Precipitation Wind Pressure Humidity
00:00 +11°C° 0 mm 6 mps 741 mmHg 77%
01:00 +10°C° 0 mm 5 mps 741 mmHg 78%
02:00 +10°C° 0 mm 5 mps 741 mmHg 80%
03:00 +10°C° 0 mm 5 mps 740 mmHg 83%
04:00 +10°C° 0 mm 5 mps 740 mmHg 87%
05:00 +10°C° 0 mm 5 mps 740 mmHg 90%
06:00 +11°C° 0 mm 6 mps 740 mmHg 86%
07:00 +14°C° 0 mm 6 mps 740 mmHg 82%
08:00 +15°C° 0 mm 7 mps 740 mmHg 78%
09:00 +17°C° 0 mm 7 mps 739 mmHg 72%
10:00 +18°C° 0 mm 7 mps 739 mmHg 66%
11:00 +21°C° 0 mm 8 mps 738 mmHg 61%
12:00 +21°C° 0 mm 8 mps 738 mmHg 59%
13:00 +22°C° 0 mm 7 mps 738 mmHg 58%
14:00 +22°C° 0 mm 7 mps 737 mmHg 56%
15:00 +22°C° 0 mm 7 mps 737 mmHg 59%
16:00 +21°C° 0 mm 7 mps 737 mmHg 61%
17:00 +21°C° 0 mm 7 mps 736 mmHg 63%
18:00 +18°C° 0 mm 7 mps 736 mmHg 68%
19:00 +16°C° 0 mm 7 mps 736 mmHg 72%
20:00 +15°C° 0 mm 7 mps 735 mmHg 77%
21:00 +12°C° 0 mm 7 mps 735 mmHg 78%
22:00 +11°C° 0 mm 7 mps 735 mmHg 79%
23:00 +10°C° 0 mm 7 mps 735 mmHg 80%
Show more